| time (UTC) | temp F | wind direction | speed MPH | gust MPH | rain 1hr in | rain 24hr in | rain mn in | humidity % | barometer mb |
| 20260831013531 | 60 | 305 | 1.0 | 8.0 | 0.00 | 0.05 | 0.05 | 73 | 1015.3 |
| 20260831013029 | 61 | 307 | 1.0 | 8.0 | 0.00 | 0.05 | 0.05 | 72 | 1015.3 |
| 20260831012530 | 61 | 280 | 1.0 | 6.0 | 0.00 | 0.05 | 0.05 | 72 | 1015.3 |
| 20260831012028 | 61 | 272 | 1.0 | 6.0 | 0.00 | 0.05 | 0.05 | 72 | 1015.3 |
| 20260831011529 | 61 | 275 | 0.0 | 4.0 | 0.00 | 0.05 | 0.05 | 71 | 1015.3 |
| 20260831011032 | 62 | 286 | 0.0 | 4.0 | 0.00 | 0.05 | 0.05 | 71 | 1015.4 |
| 20260831010535 | 62 | 284 | 0.0 | 4.0 | 0.00 | 0.05 | 0.05 | 71 | 1015.4 |
| 20260831010034 | 62 | 283 | 0.0 | 4.0 | 0.00 | 0.05 | 0.05 | 69 | 1015.4 |
| 20260831005532 | 62 | 273 | 0.0 | 4.0 | 0.00 | 0.05 | 0.05 | 69 | 1015.4 |
| 20260831005034 | 62 | 270 | 0.0 | 4.0 | 0.00 | 0.05 | 0.05 | 68 | 1015.3 |
| 20260831004534 | 63 | 270 | 1.0 | 4.0 | 0.00 | 0.05 | 0.05 | 67 | 1015.3 |
| 20260831004035 | 63 | 290 | 0.0 | 4.0 | 0.00 | 0.05 | 0.05 | 67 | 1015.3 |
| 20260831003529 | 64 | 291 | 0.0 | 3.0 | 0.00 | 0.05 | 0.05 | 67 | 1015.2 |
| 20260831003029 | 64 | 290 | 1.0 | 5.0 | 0.00 | 0.05 | 0.05 | 67 | 1015.2 |
| 20260831002531 | 64 | 289 | 0.0 | 5.0 | 0.00 | 0.05 | 0.05 | 67 | 1015.2 |
| 20260831002029 | 64 | 297 | 0.0 | 5.0 | 0.00 | 0.05 | 0.05 | 66 | 1015.2 |
| 20260831001530 | 64 | 294 | 0.0 | 5.0 | 0.00 | 0.05 | 0.05 | 66 | 1015.2 |
| 20260831001031 | 64 | 228 | 1.0 | 7.0 | 0.00 | 0.05 | 0.05 | 65 | 1015.2 |
| 20260831000529 | 64 | 216 | 0.0 | 7.0 | 0.00 | 0.05 | 0.05 | 65 | 1015.2 |
| 20260831000031 | 65 | 283 | 0.0 | 4.0 | 0.00 | 0.05 | 0.05 | 63 | 1015.2 |
| 20260830235529 | 65 | 283 | 0.0 | 6.0 | 0.00 | 0.05 | 0.05 | 63 | 1015.2 |
| 20260830235031 | 65 | 283 | 1.0 | 6.0 | 0.00 | 0.05 | 0.05 | 62 | 1015.2 |
| 20260830234528 | 65 | 235 | 0.0 | 2.0 | 0.00 | 0.05 | 0.05 | 62 | 1015.3 |
| 20260830234355 | 65 | 260 | 1.0 | 4.0 | 0.00 | 0.05 | 0.05 | 62 | 1015.3 |
| 20260830233529 | 65 | 258 | 1.0 | 6.0 | 0.00 | 0.05 | 0.05 | 63 | 1015.4 |
| 20260830233030 | 65 | 269 | 0.0 | 6.0 | 0.00 | 0.05 | 0.05 | 64 | 1015.4 |
| 20260830232528 | 65 | 236 | 1.0 | 5.0 | 0.00 | 0.05 | 0.05 | 63 | 1015.4 |
| 20260830232027 | 65 | 316 | 0.0 | 5.0 | 0.00 | 0.05 | 0.05 | 62 | 1015.4 |
| 20260830231527 | 65 | 318 | 0.0 | 3.0 | 0.00 | 0.05 | 0.05 | 63 | 1015.4 |
| 20260830231343 | 64 | 318 | 0.0 | 3.0 | 0.00 | 0.05 | 0.05 | 64 | 1015.4 |
| 20260830230524 | 64 | 319 | 0.0 | 3.0 | 0.00 | 0.05 | 0.05 | 63 | 1015.5 |
| 20260830230022 | 64 | 320 | 0.0 | 3.0 | 0.00 | 0.05 | 0.05 | 64 | 1015.6 |
| 20260830225519 | 64 | 320 | 0.0 | 3.0 | 0.00 | 0.05 | 0.05 | 64 | 1015.7 |
| 20260830225013 | 64 | 321 | 0.0 | 3.0 | 0.00 | 0.05 | 0.05 | 65 | 1015.6 |
| 20260830224508 | 64 | 321 | 0.0 | 4.0 | 0.00 | 0.05 | 0.05 | 64 | 1015.5 |
| 20260830224006 | 64 | 321 | 0.0 | 4.0 | 0.00 | 0.05 | 0.05 | 63 | 1015.7 |
| 20260830223504 | 64 | 321 | 0.0 | 1.0 | 0.00 | 0.05 | 0.05 | 64 | 1015.7 |
| 20260830223316 | 64 | 321 | 0.0 | 1.0 | 0.00 | 0.05 | 0.05 | 65 | 1015.6 |
| 20260830222505 | 63 | 321 | 0.0 | 1.0 | 0.00 | 0.05 | 0.05 | 66 | 1015.7 |
| 20260830222003 | 63 | 321 | 0.0 | 0.0 | 0.00 | 0.05 | 0.05 | 66 | 1015.7 |
| 20260830221506 | 63 | 321 | 0.0 | 1.0 | 0.00 | 0.05 | 0.05 | 66 | 1015.7 |
| 20260830221004 | 63 | 321 | 0.0 | 1.0 | 0.00 | 0.05 | 0.05 | 66 | 1015.7 |
| 20260830220504 | 63 | 321 | 0.0 | 1.0 | 0.00 | 0.05 | 0.05 | 65 | 1015.8 |
| 20260830220005 | 63 | 321 | 0.0 | 2.0 | 0.00 | 0.05 | 0.05 | 64 | 1015.7 |
| 20260830215504 | 63 | 321 | 0.0 | 4.0 | 0.00 | 0.05 | 0.05 | 65 | 1015.8 |
| 20260830215332 | 64 | 322 | 0.0 | 4.0 | 0.00 | 0.05 | 0.05 | 63 | 1015.9 |
| 20260830214504 | 62 | 328 | 0.0 | 4.0 | 0.00 | 0.05 | 0.05 | 67 | 1015.8 |
| 20260830214005 | 62 | 328 | 0.0 | 4.0 | 0.00 | 0.05 | 0.05 | 68 | 1015.8 |
| 20260830213825 | 62 | 329 | 0.0 | 3.0 | 0.00 | 0.05 | 0.05 | 66 | 1015.8 |
| 20260830213001 | 62 | 329 | 0.0 | 3.0 | 0.00 | 0.05 | 0.05 | 68 | 1015.7 |
| 20260830212818 | 62 | 329 | 0.0 | 3.0 | 0.00 | 0.05 | 0.05 | 68 | 1015.7 |
| 20260830212137 | 61 | 329 | 0.0 | 2.0 | 0.00 | 0.05 | 0.05 | 69 | 1015.7 |
| 20260830212058 | 61 | 329 | 0.0 | 3.0 | 0.00 | 0.05 | 0.05 | 71 | 1015.8 |
| 20260830210954 | 61 | 330 | 0.0 | 1.0 | 0.00 | 0.05 | 0.05 | 70 | 1015.6 |
| 20260830210455 | 60 | 329 | 0.0 | 2.0 | 0.00 | 0.05 | 0.05 | 70 | 1015.5 |
| 20260830205954 | 60 | 329 | 0.0 | 2.0 | 0.00 | 0.05 | 0.05 | 73 | 1015.6 |
| 20260830205457 | 60 | 330 | 0.0 | 4.0 | 0.00 | 0.05 | 0.05 | 73 | 1015.6 |
| 20260830205316 | 59 | 330 | 1.0 | 4.0 | 0.00 | 0.05 | 0.05 | 73 | 1015.6 |
| 20260830204454 | 59 | 330 | 1.0 | 4.0 | 0.00 | 0.05 | 0.05 | 74 | 1015.5 |
| 20260830203955 | 59 | 333 | 1.0 | 4.0 | 0.00 | 0.05 | 0.05 | 74 | 1015.5 |
| 20260830203451 | 58 | 336 | 1.0 | 7.0 | 0.00 | 0.05 | 0.05 | 75 | 1015.5 |
| 20260830202952 | 58 | 299 | 1.0 | 7.0 | 0.00 | 0.05 | 0.05 | 74 | 1015.6 |
| 20260830202450 | 58 | 276 | 1.0 | 7.0 | 0.00 | 0.05 | 0.05 | 74 | 1015.4 |
| 20260830201950 | 58 | 294 | 1.0 | 7.0 | 0.00 | 0.05 | 0.05 | 73 | 1015.3 |
| 20260830201816 | 59 | 291 | 1.0 | 4.0 | 0.00 | 0.05 | 0.05 | 72 | 1015.2 |
| 20260830200942 | 59 | 294 | 1.0 | 4.0 | 0.00 | 0.05 | 0.05 | 72 | 1015.1 |
| 20260830200439 | 60 | 298 | 1.0 | 3.0 | 0.00 | 0.05 | 0.05 | 71 | 1015.0 |
| 20260830200257 | 60 | 301 | 1.0 | 7.0 | 0.00 | 0.05 | 0.05 | 70 | 1015.1 |
| 20260830195800 | 61 | 285 | 1.0 | 7.0 | 0.00 | 0.05 | 0.05 | 68 | 1015.0 |
| 20260830194938 | 62 | 335 | 1.0 | 5.0 | 0.00 | 0.05 | 0.05 | 67 | 1015.0 |
| 20260830194537 | 62 | 46 | 0.0 | 4.0 | 0.00 | 0.05 | 0.05 | 67 | 1014.8 |
| 20260830193435 | 63 | 48 | 0.0 | 4.0 | 0.00 | 0.05 | 0.05 | 60 | 1014.7 |
| 20260830192935 | 63 | 49 | 0.0 | 4.0 | 0.00 | 0.05 | 0.05 | 59 | 1014.7 |
| 20260830192435 | 63 | 48 | 1.0 | 6.0 | 0.00 | 0.05 | 0.05 | 60 | 1014.6 |
| 20260830191933 | 63 | 48 | 0.0 | 6.0 | 0.00 | 0.05 | 0.05 | 59 | 1014.5 |
| 20260830191432 | 63 | 50 | 0.0 | 5.0 | 0.00 | 0.05 | 0.05 | 63 | 1014.5 |
| 20260830190933 | 62 | 50 | 1.0 | 5.0 | 0.00 | 0.05 | 0.05 | 61 | 1014.6 |
| 20260830190431 | 62 | 50 | 1.0 | 5.0 | 0.00 | 0.05 | 0.05 | 62 | 1014.7 |
| 20260830185933 | 62 | 52 | 0.0 | 3.0 | 0.00 | 0.05 | 0.05 | 64 | 1014.7 |
| 20260830185433 | 61 | 52 | 1.0 | 5.0 | 0.00 | 0.05 | 0.05 | 65 | 1014.6 |
| 20260830184932 | 61 | 52 | 2.0 | 5.0 | 0.00 | 0.05 | 0.05 | 64 | 1014.7 |
| 20260830184429 | 61 | 57 | 2.0 | 5.0 | 0.00 | 0.05 | 0.05 | 64 | 1014.7 |
| 20260830183930 | 61 | 55 | 1.0 | 4.0 | 0.00 | 0.05 | 0.05 | 64 | 1014.7 |
| 20260830183429 | 61 | 58 | 0.0 | 4.0 | 0.00 | 0.05 | 0.05 | 66 | 1014.7 |
| 20260830182928 | 61 | 56 | 0.0 | 4.0 | 0.00 | 0.05 | 0.05 | 66 | 1014.7 |
| 20260830182428 | 60 | 56 | 1.0 | 4.0 | 0.00 | 0.05 | 0.05 | 66 | 1014.7 |
| 20260830181929 | 60 | 56 | 1.0 | 6.0 | 0.00 | 0.05 | 0.05 | 66 | 1014.6 |
| 20260830181429 | 60 | 57 | 2.0 | 6.0 | 0.00 | 0.05 | 0.05 | 67 | 1014.7 |
| 20260830180930 | 60 | 50 | 2.0 | 6.0 | 0.00 | 0.05 | 0.05 | 69 | 1014.5 |
| 20260830180429 | 60 | 72 | 1.0 | 4.0 | 0.00 | 0.05 | 0.05 | 68 | 1014.5 |
| 20260830175929 | 59 | 48 | 1.0 | 4.0 | 0.00 | 0.05 | 0.05 | 70 | 1014.6 |
| 20260830175429 | 59 | 47 | 0.0 | 4.0 | 0.00 | 0.05 | 0.05 | 69 | 1014.5 |
| 20260830174929 | 59 | 46 | 1.0 | 4.0 | 0.00 | 0.05 | 0.05 | 69 | 1014.5 |
| 20260830174750 | 59 | 46 | 1.0 | 4.0 | 0.00 | 0.05 | 0.05 | 73 | 1014.3 |
| 20260830173929 | 59 | 45 | 0.0 | 4.0 | 0.00 | 0.05 | 0.05 | 71 | 1014.3 |
| 20260830173753 | 59 | 45 | 0.0 | 3.0 | 0.00 | 0.05 | 0.05 | 71 | 1014.2 |
| 20260830173255 | 59 | 43 | 0.0 | 2.0 | 0.00 | 0.05 | 0.05 | 72 | 1014.2 |
| 20260830172750 | 59 | 43 | 0.0 | 3.0 | 0.00 | 0.05 | 0.05 | 73 | 1014.3 |
| 20260830171933 | 59 | 43 | 0.0 | 3.0 | 0.00 | 0.05 | 0.05 | 72 | 1014.3 |
| 20260830171436 | 58 | 43 | 0.0 | 4.0 | 0.00 | 0.05 | 0.05 | 74 | 1014.2 |
| 20260830170934 | 58 | 43 | 0.0 | 4.0 | 0.00 | 0.05 | 0.05 | 75 | 1014.2 |
| 20260830170435 | 58 | 43 | 1.0 | 4.0 | 0.00 | 0.05 | 0.05 | 76 | 1014.1 |
| 20260830170128 | 56 | 359 | 0.0 | 3.0 | 0.00 | 0.05 | 0.05 | 79 | 1014.2 |
| 20260830170049 | 57 | 41 | 1.0 | 4.0 | 0.00 | 0.05 | 0.05 | 76 | 1014.1 |
| 20260830165305 | 56 | 359 | 0.0 | 3.0 | 0.00 | 0.05 | 0.05 | 79 | 1014.2 |
| 20260830164433 | 55 | 354 | 0.0 | 3.0 | 0.00 | 0.05 | 0.05 | 82 | 1014.2 |
| 20260830163931 | 55 | 354 | 0.0 | 3.0 | 0.00 | 0.05 | 0.05 | 81 | 1014.2 |
| 20260830163429 | 54 | 304 | 0.0 | 1.0 | 0.00 | 0.05 | 0.05 | 84 | 1014.2 |
| 20260830162930 | 54 | 304 | 0.0 | 1.0 | 0.00 | 0.05 | 0.05 | 85 | 1014.2 |
| 20260830162428 | 53 | 303 | 0.0 | 1.0 | 0.00 | 0.05 | 0.05 | 86 | 1014.3 |
| 20260830161929 | 53 | 304 | 0.0 | 1.0 | 0.00 | 0.05 | 0.05 | 86 | 1014.3 |
| 20260830161430 | 53 | 304 | 0.0 | 1.0 | 0.00 | 0.05 | 0.05 | 85 | 1014.3 |
| 20260830161248 | 53 | 303 | 0.0 | 1.0 | 0.00 | 0.05 | 0.05 | 85 | 1014.3 |
| 20260830160747 | 53 | 305 | 0.0 | 0.0 | 0.00 | 0.05 | 0.05 | 86 | 1014.3 |
| 20260830155930 | 52 | 305 | 0.0 | 0.0 | 0.00 | 0.05 | 0.05 | 87 | 1014.3 |
| 20260830155429 | 52 | 305 | 0.0 | 1.0 | 0.00 | 0.05 | 0.05 | 87 | 1014.3 |
| 20260830154929 | 52 | 305 | 0.0 | 1.0 | 0.00 | 0.05 | 0.05 | 88 | 1014.5 |
| 20260830154748 | 52 | 305 | 0.0 | 0.0 | 0.00 | 0.05 | 0.05 | 87 | 1014.5 |
| 20260830153932 | 52 | 305 | 0.0 | 0.0 | 0.00 | 0.05 | 0.05 | 87 | 1014.5 |
| 20260830153429 | 52 | 305 | 0.0 | 1.0 | 0.00 | 0.05 | 0.05 | 87 | 1014.3 |
| 20260830152928 | 52 | 305 | 0.0 | 1.0 | 0.00 | 0.05 | 0.05 | 87 | 1014.3 |
| 20260830152749 | 52 | 305 | 0.0 | 0.0 | 0.00 | 0.05 | 0.05 | 87 | 1014.3 |
| 20260830151929 | 51 | 305 | 0.0 | 0.0 | 0.00 | 0.05 | 0.05 | 86 | 1014.2 |
| 20260830151431 | 51 | 305 | 0.0 | 0.0 | 0.00 | 0.05 | 0.05 | 88 | 1014.1 |
| 20260830150931 | 51 | 305 | 0.0 | 0.0 | 0.00 | 0.05 | 0.05 | 87 | 1014.1 |
| 20260830150430 | 51 | 305 | 0.0 | 0.0 | 0.00 | 0.05 | 0.05 | 87 | 1014.1 |
| 20260830150252 | 51 | 305 | 0.0 | 0.0 | 0.00 | 0.05 | 0.05 | 87 | 1014.1 |
| 20260830145429 | 51 | 305 | 0.0 | 0.0 | 0.00 | 0.05 | 0.05 | 87 | 1014.1 |
| 20260830144929 | 51 | 305 | 0.0 | 0.0 | 0.00 | 0.05 | 0.05 | 87 | 1014.1 |
| 20260830144429 | 51 | 305 | 0.0 | 0.0 | 0.00 | 0.05 | 0.05 | 87 | 1014.1 |
| 20260830144116 | 51 | 305 | 0.0 | 1.0 | 0.01 | 0.05 | 0.05 | 87 | 1014.0 |
| 20260830144040 | 51 | 305 | 0.0 | 0.0 | 0.00 | 0.05 | 0.05 | 87 | 1014.1 |
| 20260830142929 | 51 | 305 | 0.0 | 1.0 | 0.01 | 0.05 | 0.05 | 88 | 1014.0 |
| 20260830142428 | 51 | 305 | 0.0 | 0.0 | 0.01 | 0.05 | 0.05 | 88 | 1014.0 |
| 20260830142246 | 51 | 305 | 0.0 | 0.0 | 0.01 | 0.05 | 0.05 | 88 | 1014.0 |
| 20260830141430 | 51 | 305 | 0.0 | 0.0 | 0.02 | 0.05 | 0.05 | 88 | 1014.0 |
| 20260830140931 | 51 | 305 | 0.0 | 0.0 | 0.02 | 0.05 | 0.05 | 88 | 1014.0 |
| 20260830140751 | 51 | 305 | 0.0 | 0.0 | 0.02 | 0.05 | 0.05 | 88 | 1013.9 |
| 20260830135929 | 51 | 305 | 0.0 | 0.0 | 0.02 | 0.05 | 0.05 | 88 | 1013.9 |
| 20260830135744 | 51 | 305 | 0.0 | 0.0 | 0.02 | 0.05 | 0.05 | 88 | 1013.8 |
| 20260830134932 | 51 | 305 | 0.0 | 0.0 | 0.02 | 0.05 | 0.05 | 89 | 1013.9 |
| 20260830134432 | 51 | 305 | 0.0 | 0.0 | 0.02 | 0.05 | 0.05 | 88 | 1013.8 |
| 20260830133933 | 51 | 305 | 0.0 | 0.0 | 0.03 | 0.05 | 0.04 | 88 | 1013.7 |
| 20260830133431 | 51 | 305 | 0.0 | 0.0 | 0.02 | 0.04 | 0.04 | 89 | 1013.7 |
| 20260830132934 | 51 | 305 | 0.0 | 0.0 | 0.03 | 0.04 | 0.04 | 89 | 1013.6 |
| 20260830132433 | 51 | 305 | 0.0 | 0.0 | 0.03 | 0.04 | 0.04 | 89 | 1013.6 |
| 20260830131933 | 51 | 305 | 0.0 | 0.0 | 0.03 | 0.04 | 0.04 | 89 | 1013.6 |
| 20260830131729 | 51 | 305 | 0.0 | 0.0 | 0.02 | 0.03 | 0.03 | 88 | 1013.5 |
| 20260830131628 | 51 | 305 | 0.0 | 0.0 | 0.02 | 0.03 | 0.00 | 89 | 1013.6 |
| 20260830131443 | 51 | 305 | 0.0 | 0.0 | 0.02 | 0.03 | 0.03 | 88 | 1013.5 |
| 20260830125935 | 51 | 305 | 0.0 | 0.0 | 0.02 | 0.03 | 0.03 | 88 | 1013.5 |
| 20260830125426 | 51 | 305 | 0.0 | 1.0 | 0.02 | 0.02 | 0.02 | 88 | 1013.5 |
| 20260830124926 | 51 | 305 | 0.0 | 1.0 | 0.02 | 0.02 | 0.02 | 88 | 1013.5 |
| 20260830124424 | 51 | 305 | 0.0 | 1.0 | 0.02 | 0.02 | 0.02 | 87 | 1013.6 |
| 20260830123924 | 51 | 305 | 0.0 | 1.0 | 0.02 | 0.02 | 0.02 | 87 | 1013.6 |
| 20260830123425 | 51 | 305 | 0.0 | 1.0 | 0.02 | 0.02 | 0.02 | 86 | 1013.5 |
| 20260830122920 | 51 | 305 | 0.0 | 1.0 | 0.01 | 0.01 | 0.01 | 86 | 1013.6 |
| 20260830122419 | 52 | 305 | 0.0 | 0.0 | 0.01 | 0.01 | 0.01 | 86 | 1013.6 |
| 20260830121919 | 52 | 305 | 0.0 | 0.0 | 0.01 | 0.01 | 0.01 | 86 | 1013.6 |
| 20260830121418 | 52 | 305 | 0.0 | 0.0 | 0.01 | 0.01 | 0.01 | 85 | 1013.6 |
| 20260830120916 | 52 | 305 | 0.0 | 0.0 | 0.01 | 0.01 | 0.01 | 85 | 1013.5 |
| 20260830120413 | 52 | 305 | 0.0 | 0.0 | 0.01 | 0.01 | 0.01 | 86 | 1013.5 |
| 20260830115912 | 52 | 305 | 0.0 | 0.0 | 0.01 | 0.01 | 0.01 | 85 | 1013.6 |
| 20260830115415 | 52 | 305 | 0.0 | 0.0 | 0.01 | 0.01 | 0.01 | 85 | 1013.5 |
| 20260830115017 | 52 | 305 | 0.0 | 0.0 | 0.01 | 0.01 | 0.01 | 85 | 1013.5 |
| 20260830113908 | 52 | 305 | 0.0 | 0.0 | 0.00 | 0.00 | 0.00 | 84 | 1013.7 |
| 20260830113406 | 52 | 305 | 0.0 | 0.0 | 0.00 | 0.00 | 0.00 | 84 | 1013.7 |
| 20260830112903 | 52 | 305 | 0.0 | 0.0 | 0.00 | 0.00 | 0.00 | 83 | 1013.6 |
| 20260830112637 | 52 | 305 | 0.0 | 0.0 | 0.00 | 0.00 | 0.00 | 82 | 1013.6 |
| 20260830111906 | 53 | 305 | 0.0 | 0.0 | 0.00 | 0.00 | 0.00 | 80 | 1013.6 |
| 20260830111402 | 53 | 305 | 0.0 | 0.0 | 0.00 | 0.00 | 0.00 | 80 | 1013.6 |
| 20260830110904 | 53 | 305 | 0.0 | 0.0 | 0.00 | 0.00 | 0.00 | 80 | 1013.6 |
| 20260830110404 | 53 | 305 | 0.0 | 0.0 | 0.00 | 0.00 | 0.00 | 79 | 1013.6 |
| 20260830105904 | 53 | 305 | 0.0 | 0.0 | 0.00 | 0.00 | 0.00 | 78 | 1013.6 |
| 20260830105402 | 53 | 305 | 0.0 | 0.0 | 0.00 | 0.00 | 0.00 | 79 | 1013.5 |
| 20260830104902 | 53 | 305 | 0.0 | 0.0 | 0.00 | 0.00 | 0.00 | 79 | 1013.5 |
| 20260830104403 | 53 | 305 | 0.0 | 1.0 | 0.00 | 0.00 | 0.00 | 78 | 1013.5 |
| 20260830103903 | 53 | 305 | 0.0 | 1.0 | 0.00 | 0.00 | 0.00 | 77 | 1013.6 |
| 20260830103403 | 53 | 305 | 0.0 | 1.0 | 0.00 | 0.00 | 0.00 | 76 | 1013.5 |
| 20260830102902 | 53 | 305 | 0.0 | 1.0 | 0.00 | 0.00 | 0.00 | 74 | 1013.5 |
| 20260830102402 | 53 | 305 | 0.0 | 1.0 | 0.00 | 0.00 | 0.00 | 74 | 1013.5 |
| 20260830101902 | 53 | 305 | 0.0 | 1.0 | 0.00 | 0.00 | 0.00 | 73 | 1013.5 |
| 20260830101402 | 53 | 305 | 0.0 | 0.0 | 0.00 | 0.00 | 0.00 | 74 | 1013.5 |
| 20260830100904 | 53 | 305 | 0.0 | 1.0 | 0.00 | 0.00 | 0.00 | 73 | 1013.5 |
| 20260830100404 | 53 | 305 | 0.0 | 1.0 | 0.00 | 0.00 | 0.00 | 72 | 1013.5 |
| 20260830095906 | 53 | 305 | 0.0 | 0.0 | 0.00 | 0.00 | 0.00 | 71 | 1013.5 |
| 20260830095404 | 53 | 305 | 0.0 | 0.0 | 0.00 | 0.00 | 0.00 | 71 | 1013.5 |
| 20260830095222 | 53 | 305 | 0.0 | 0.0 | 0.00 | 0.00 | 0.00 | 72 | 1013.6 |
| 20260830094409 | 53 | 305 | 0.0 | 0.0 | 0.00 | 0.00 | 0.00 | 73 | 1013.6 |
| 20260830093905 | 53 | 305 | 0.0 | 0.0 | 0.00 | 0.00 | 0.00 | 72 | 1013.6 |
| 20260830093407 | 53 | 305 | 0.0 | 0.0 | 0.00 | 0.00 | 0.00 | 73 | 1013.5 |
| 20260830092908 | 53 | 305 | 0.0 | 0.0 | 0.00 | 0.00 | 0.00 | 73 | 1013.4 |
| 20260830092726 | 53 | 305 | 0.0 | 1.0 | 0.00 | 0.00 | 0.00 | 73 | 1013.4 |
| 20260830092036 | 53 | 305 | 0.0 | 1.0 | 0.00 | 0.00 | 0.00 | 74 | 1013.4 |
| 20260830092001 | 53 | 305 | 0.0 | 1.0 | 0.00 | 0.00 | 0.00 | 74 | 1013.4 |
| 20260830090902 | 53 | 305 | 0.0 | 1.0 | 0.00 | 0.00 | 0.00 | 75 | 1013.4 |
| 20260830090402 | 53 | 305 | 0.0 | 1.0 | 0.00 | 0.00 | 0.00 | 75 | 1013.5 |
| 20260830085903 | 53 | 305 | 0.0 | 1.0 | 0.00 | 0.00 | 0.00 | 75 | 1013.6 |
| 20260830085402 | 54 | 305 | 0.0 | 0.0 | 0.00 | 0.00 | 0.00 | 73 | 1013.6 |
| 20260830084902 | 54 | 305 | 0.0 | 0.0 | 0.00 | 0.00 | 0.00 | 71 | 1013.4 |
| 20260830084402 | 54 | 305 | 0.0 | 2.0 | 0.00 | 0.00 | 0.00 | 71 | 1013.4 |
| 20260830083903 | 54 | 305 | 0.0 | 2.0 | 0.00 | 0.00 | 0.00 | 71 | 1013.3 |
| 20260830083721 | 54 | 305 | 0.0 | 2.0 | 0.00 | 0.00 | 0.00 | 71 | 1013.3 |
| 20260830083049 | 54 | 305 | 0.0 | 0.0 | 0.00 | 0.00 | 0.00 | 71 | 1013.3 |
| 20260830083009 | 54 | 305 | 0.0 | 2.0 | 0.00 | 0.00 | 0.00 | 71 | 1013.3 |
| 20260830082213 | 54 | 305 | 0.0 | 0.0 | 0.00 | 0.00 | 0.00 | 71 | 1013.3 |
| 20260830081401 | 54 | 305 | 0.0 | 0.0 | 0.00 | 0.00 | 0.00 | 71 | 1013.4 |
| 20260830081234 | 54 | 305 | 0.0 | 0.0 | 0.00 | 0.00 | 0.00 | 70 | 1013.4 |
| 20260830080401 | 54 | 305 | 0.0 | 0.0 | 0.00 | 0.00 | 0.00 | 70 | 1013.4 |
| 20260830075901 | 55 | 305 | 0.0 | 0.0 | 0.00 | 0.00 | 0.00 | 70 | 1013.5 |
| 20260830075403 | 55 | 305 | 0.0 | 0.0 | 0.00 | 0.00 | 0.00 | 69 | 1013.5 |
| 20260830074904 | 55 | 305 | 0.0 | 0.0 | 0.00 | 0.00 | 0.00 | 69 | 1013.4 |
| 20260830074409 | 55 | 305 | 0.0 | 0.0 | 0.00 | 0.00 | 0.00 | 69 | 1013.5 |
| 20260830073908 | 55 | 305 | 0.0 | 1.0 | 0.00 | 0.00 | 0.00 | 68 | 1013.4 |
| 20260830073404 | 55 | 305 | 0.0 | 1.0 | 0.00 | 0.00 | 0.00 | 68 | 1013.4 |
| 20260830072904 | 55 | 305 | 0.0 | 2.0 | 0.00 | 0.00 | 0.00 | 67 | 1013.3 |
| 20260830072404 | 55 | 305 | 0.0 | 2.0 | 0.00 | 0.00 | 0.00 | 67 | 1013.2 |
| 20260830071904 | 55 | 305 | 0.0 | 0.0 | 0.00 | 0.00 | 0.00 | 68 | 1013.1 |
| 20260830071404 | 54 | 305 | 0.0 | 0.0 | 0.00 | 0.00 | 0.00 | 69 | 1013.0 |
| 20260830070907 | 54 | 305 | 0.0 | 0.0 | 0.00 | 0.00 | 0.00 | 69 | 1013.0 |
| 20260830070405 | 54 | 305 | 0.0 | 0.0 | 0.00 | 0.00 | 0.00 | 70 | 1013.0 |
| 20260830070242 | 54 | 305 | 0.0 | 0.0 | 0.00 | 0.00 | 0.00 | 70 | 1013.2 |
| 20260830065404 | 54 | 305 | 0.0 | 0.0 | 0.00 | 0.00 | 0.00 | 70 | 1013.2 |
| 20260830064904 | 54 | 305 | 0.0 | 0.0 | 0.00 | 0.00 | 0.00 | 70 | 1013.2 |
| 20260830064405 | 54 | 305 | 0.0 | 0.0 | 0.00 | 0.00 | 0.00 | 69 | 1013.1 |
| 20260830063905 | 54 | 305 | 0.0 | 0.0 | 0.00 | 0.00 | 0.00 | 70 | 1013.2 |
| 20260830063404 | 54 | 305 | 0.0 | 0.0 | 0.00 | 0.00 | 0.00 | 70 | 1013.1 |
| 20260830062904 | 54 | 305 | 0.0 | 0.0 | 0.00 | 0.00 | 0.00 | 70 | 1013.1 |
| 20260830062404 | 54 | 305 | 0.0 | 1.0 | 0.00 | 0.00 | 0.00 | 69 | 1013.1 |
| 20260830061906 | 54 | 305 | 0.0 | 1.0 | 0.00 | 0.00 | 0.00 | 68 | 1013.1 |
| 20260830061404 | 54 | 305 | 0.0 | 0.0 | 0.00 | 0.00 | 0.00 | 68 | 1013.0 |
| 20260830060903 | 55 | 305 | 0.0 | 0.0 | 0.00 | 0.00 | 0.00 | 67 | 1013.0 |
| 20260830060404 | 55 | 305 | 0.0 | 0.0 | 0.00 | 0.00 | 0.00 | 68 | 1012.9 |
| 20260830055905 | 55 | 305 | 0.0 | 1.0 | 0.00 | 0.00 | 0.00 | 67 | 1012.9 |
| 20260830055404 | 55 | 305 | 0.0 | 1.0 | 0.00 | 0.00 | 0.00 | 67 | 1013.0 |
| 20260830054903 | 55 | 305 | 0.0 | 1.0 | 0.00 | 0.00 | 0.00 | 67 | 1013.0 |
| 20260830054404 | 55 | 305 | 0.0 | 1.0 | 0.00 | 0.00 | 0.00 | 66 | 1013.1 |
| 20260830053905 | 56 | 305 | 0.0 | 0.0 | 0.00 | 0.00 | 0.00 | 66 | 1013.1 |
| 20260830053404 | 56 | 305 | 0.0 | 0.0 | 0.00 | 0.00 | 0.00 | 65 | 1013.0 |
| 20260830052903 | 56 | 305 | 0.0 | 0.0 | 0.00 | 0.00 | 0.00 | 64 | 1013.1 |
| 20260830052404 | 56 | 305 | 0.0 | 0.0 | 0.00 | 0.00 | 0.00 | 64 | 1013.1 |
| 20260830051905 | 56 | 305 | 0.0 | 0.0 | 0.00 | 0.00 | 0.00 | 64 | 1013.1 |
| 20260830051403 | 56 | 305 | 0.0 | 0.0 | 0.00 | 0.00 | 0.00 | 64 | 1013.1 |
| 20260830050903 | 56 | 305 | 0.0 | 0.0 | 0.00 | 0.00 | 0.00 | 65 | 1013.1 |
| 20260830050406 | 56 | 305 | 0.0 | 0.0 | 0.00 | 0.00 | 0.00 | 65 | 1013.2 |
| 20260830050232 | 56 | 305 | 0.0 | 0.0 | 0.00 | 0.00 | 0.00 | 64 | 1013.2 |
| 20260830045404 | 56 | 305 | 0.0 | 0.0 | 0.00 | 0.00 | 0.00 | 64 | 1013.2 |
| 20260830044904 | 56 | 305 | 0.0 | 0.0 | 0.00 | 0.00 | 0.00 | 64 | 1013.3 |
| 20260830044733 | 56 | 305 | 0.0 | 0.0 | 0.00 | 0.00 | 0.00 | 64 | 1013.2 |
| 20260830043906 | 57 | 305 | 0.0 | 0.0 | 0.00 | 0.00 | 0.00 | 63 | 1013.2 |
| 20260830043720 | 57 | 305 | 0.0 | 1.0 | 0.00 | 0.00 | 0.00 | 63 | 1013.2 |
| 20260830042906 | 57 | 305 | 0.0 | 1.0 | 0.00 | 0.00 | 0.00 | 62 | 1013.2 |
| 20260830042405 | 57 | 305 | 0.0 | 1.0 | 0.00 | 0.00 | 0.00 | 62 | 1013.1 |
| 20260830041905 | 57 | 305 | 0.0 | 2.0 | 0.00 | 0.00 | 0.00 | 62 | 1013.1 |
| 20260830041405 | 57 | 305 | 0.0 | 2.0 | 0.00 | 0.00 | 0.00 | 61 | 1013.0 |
| 20260830040905 | 57 | 305 | 0.0 | 0.0 | 0.00 | 0.00 | 0.00 | 61 | 1013.0 |
| 20260830040405 | 57 | 305 | 0.0 | 0.0 | 0.00 | 0.00 | 0.00 | 61 | 1013.0 |
| 20260830035905 | 57 | 305 | 0.0 | 0.0 | 0.00 | 0.00 | 0.00 | 60 | 1012.9 |
| 20260830035403 | 58 | 305 | 0.0 | 0.0 | 0.00 | 0.00 | 0.00 | 60 | 1012.9 |
| 20260830035223 | 58 | 305 | 0.0 | 0.0 | 0.00 | 0.00 | 0.00 | 60 | 1013.0 |
| 20260830034405 | 58 | 305 | 0.0 | 1.0 | 0.00 | 0.00 | 0.00 | 60 | 1012.9 |
| 20260830033906 | 58 | 305 | 0.0 | 1.0 | 0.00 | 0.00 | 0.00 | 60 | 1013.0 |
| 20260830033403 | 58 | 305 | 0.0 | 2.0 | 0.00 | 0.00 | 0.00 | 60 | 1012.9 |
| 20260830032905 | 58 | 305 | 0.0 | 2.0 | 0.00 | 0.00 | 0.00 | 60 | 1013.0 |
| 20260830032404 | 58 | 305 | 0.0 | 2.0 | 0.00 | 0.00 | 0.00 | 59 | 1013.0 |
| 20260830032226 | 58 | 305 | 0.0 | 2.0 | 0.00 | 0.00 | 0.00 | 59 | 1013.0 |
| 20260830031405 | 58 | 305 | 0.0 | 2.0 | 0.00 | 0.00 | 0.00 | 59 | 1013.1 |
| 20260830030905 | 58 | 297 | 0.0 | 0.0 | 0.00 | 0.00 | 0.00 | 60 | 1013.1 |
| 20260830030404 | 58 | 297 | 0.0 | 1.0 | 0.00 | 0.00 | 0.00 | 59 | 1013.1 |
| 20260830025905 | 58 | 297 | 0.0 | 1.0 | 0.00 | 0.00 | 0.00 | 59 | 1013.1 |
| 20260830025407 | 58 | 297 | 0.0 | 2.0 | 0.00 | 0.00 | 0.00 | 58 | 1013.1 |
| 20260830024905 | 59 | 297 | 0.0 | 4.0 | 0.00 | 0.00 | 0.00 | 57 | 1013.1 |
| 20260830024406 | 59 | 299 | 0.0 | 4.0 | 0.00 | 0.00 | 0.00 | 56 | 1013.0 |
| 20260830023903 | 59 | 297 | 0.0 | 5.0 | 0.00 | 0.00 | 0.00 | 55 | 1012.8 |
| 20260830023404 | 60 | 301 | 0.0 | 5.0 | 0.00 | 0.00 | 0.00 | 54 | 1012.6 |
| 20260830022907 | 60 | 301 | 0.0 | 2.0 | 0.00 | 0.00 | 0.00 | 54 | 1012.4 |
| 20260830022405 | 60 | 301 | 0.0 | 2.0 | 0.00 | 0.00 | 0.00 | 53 | 1012.4 |
| 20260830021904 | 60 | 301 | 0.0 | 2.0 | 0.00 | 0.00 | 0.00 | 53 | 1012.3 |
| 20260830021405 | 60 | 301 | 0.0 | 2.0 | 0.00 | 0.00 | 0.00 | 52 | 1012.4 |
| 20260830021224 | 60 | 301 | 0.0 | 2.0 | 0.00 | 0.00 | 0.00 | 52 | 1012.3 |
| 20260830020359 | 60 | 301 | 0.0 | 0.0 | 0.00 | 0.00 | 0.00 | 52 | 1012.4 |
| 20260830015859 | 60 | 301 | 0.0 | 0.0 | 0.00 | 0.00 | 0.00 | 52 | 1012.4 |
| 20260830015718 | 60 | 301 | 0.0 | 0.0 | 0.00 | 0.00 | 0.00 | 51 | 1012.5 |
| 20260830014901 | 60 | 301 | 0.0 | 1.0 | 0.00 | 0.00 | 0.00 | 50 | 1012.4 |